| time (UTC) | temp C | wind direction | speed KPH | gust KPH | rain 1hr cm | rain 24hr cm | rain mn cm | humidity % | barometer mb |
| 20260903023556 | 26 | 288 | 1.6 | 9.7 | 0.00 | 0.00 | 0.00 | 55 | 1020.7 |
| 20260903023135 | 26 | 299 | 4.8 | 9.7 | 0.00 | 0.00 | 0.00 | 54 | 1020.8 |
| 20260903022619 | 26 | 288 | 4.8 | 9.7 | 0.00 | 0.00 | 0.00 | 52 | 1020.6 |
| 20260903022058 | 26 | 292 | 4.8 | 11.3 | 0.00 | 0.00 | 0.00 | 51 | 1020.7 |
| 20260903021611 | 26 | 309 | 4.8 | 11.3 | 0.00 | 0.00 | 0.00 | 51 | 1020.5 |
| 20260903021055 | 26 | 288 | 6.4 | 11.3 | 0.00 | 0.00 | 0.00 | 51 | 1020.5 |
| 20260903020556 | 27 | 302 | 4.8 | 9.7 | 0.00 | 0.00 | 0.00 | 53 | 1020.6 |
| 20260903020108 | 27 | 307 | 4.8 | 9.7 | 0.00 | 0.00 | 0.00 | 53 | 1020.4 |
| 20260903015555 | 27 | 294 | 4.8 | 9.7 | 0.00 | 0.00 | 0.00 | 53 | 1020.2 |
| 20260903015055 | 27 | 305 | 4.8 | 9.7 | 0.00 | 0.00 | 0.00 | 52 | 1020.2 |
| 20260903014604 | 27 | 306 | 3.2 | 9.7 | 0.00 | 0.00 | 0.00 | 52 | 1020.2 |
| 20260903014149 | 27 | 297 | 3.2 | 8.0 | 0.00 | 0.00 | 0.00 | 51 | 1020.2 |
| 20260902183626 | 28 | 0 | 1.6 | 6.4 | 0.00 | 0.00 | 0.00 | 39 | 1023.1 |
| 20260902183115 | 28 | 68 | 1.6 | 4.8 | 0.00 | 0.00 | 0.00 | 39 | 1023.1 |
| 20260902182555 | 28 | 0 | 0.0 | 4.8 | 0.00 | 0.00 | 0.00 | 39 | 1023.2 |
| 20260902182059 | 28 | 0 | 1.6 | 9.7 | 0.00 | 0.00 | 0.00 | 39 | 1023.3 |
| 20260902181606 | 28 | 68 | 1.6 | 11.3 | 0.00 | 0.00 | 0.00 | 39 | 1023.4 |
| 20260902181055 | 28 | 68 | 4.8 | 11.3 | 0.00 | 0.00 | 0.00 | 38 | 1023.5 |
| 20260902180553 | 28 | 63 | 8.0 | 11.3 | 0.00 | 0.00 | 0.00 | 39 | 1023.6 |
| 20260902175553 | 29 | 1 | 4.8 | 12.9 | 0.00 | 0.00 | 0.00 | 39 | 1023.6 |
| 20260902175055 | 29 | 3 | 8.0 | 12.9 | 0.00 | 0.00 | 0.00 | 41 | 1023.6 |
| 20260902174603 | 29 | 360 | 6.4 | 11.3 | 0.00 | 0.00 | 0.00 | 40 | 1023.6 |
| 20260902174058 | 29 | 359 | 3.2 | 8.0 | 0.00 | 0.00 | 0.00 | 43 | 1023.6 |
| 20260902173553 | 28 | 25 | 1.6 | 12.9 | 0.00 | 0.00 | 0.00 | 43 | 1023.7 |
| 20260902173111 | 28 | 11 | 3.2 | 12.9 | 0.00 | 0.00 | 0.00 | 43 | 1023.7 |
| 20260902172555 | 28 | 359 | 4.8 | 12.9 | 0.00 | 0.00 | 0.00 | 46 | 1023.8 |
| 20260902172054 | 28 | 28 | 1.6 | 11.3 | 0.00 | 0.00 | 0.00 | 44 | 1023.8 |
| 20260902171606 | 28 | 0 | 4.8 | 14.5 | 0.00 | 0.00 | 0.00 | 44 | 1023.7 |
| 20260902171055 | 28 | 360 | 4.8 | 14.5 | 0.00 | 0.00 | 0.00 | 44 | 1023.7 |
| 20260902170555 | 28 | 46 | 6.4 | 12.9 | 0.00 | 0.00 | 0.00 | 45 | 1023.8 |
| 20260902170134 | 28 | 29 | 6.4 | 9.7 | 0.00 | 0.00 | 0.00 | 45 | 1023.8 |
| 20260902165554 | 27 | 0 | 3.2 | 8.0 | 0.00 | 0.00 | 0.00 | 48 | 1023.8 |
| 20260902165059 | 27 | 0 | 0.0 | 8.0 | 0.00 | 0.00 | 0.00 | 48 | 1023.7 |
| 20260902164608 | 27 | 0 | 0.0 | 8.0 | 0.00 | 0.00 | 0.00 | 46 | 1023.7 |
| 20260902164054 | 27 | 329 | 3.2 | 6.4 | 0.00 | 0.00 | 0.00 | 48 | 1023.7 |
| 20260902163556 | 27 | 0 | 1.6 | 9.7 | 0.00 | 0.00 | 0.00 | 48 | 1023.8 |
| 20260902163105 | 27 | 41 | 3.2 | 9.7 | 0.00 | 0.00 | 0.00 | 49 | 1023.8 |
| 20260902162558 | 27 | 16 | 4.8 | 9.7 | 0.00 | 0.00 | 0.00 | 51 | 1023.8 |
| 20260902162053 | 27 | 1 | 4.8 | 9.7 | 0.00 | 0.00 | 0.00 | 50 | 1023.9 |
| 20260902161604 | 27 | 1 | 4.8 | 9.7 | 0.00 | 0.00 | 0.00 | 51 | 1023.9 |
| 20260902161055 | 27 | 46 | 3.2 | 8.0 | 0.00 | 0.00 | 0.00 | 52 | 1023.9 |
| 20260902160554 | 27 | 37 | 3.2 | 6.4 | 0.00 | 0.00 | 0.00 | 52 | 1023.9 |
| 20260902160058 | 26 | 52 | 1.6 | 9.7 | 0.00 | 0.00 | 0.00 | 53 | 1023.9 |
| 20260902155556 | 27 | 72 | 4.8 | 9.7 | 0.00 | 0.00 | 0.00 | 52 | 1024.0 |
| 20260902155054 | 26 | 91 | 4.8 | 14.5 | 0.00 | 0.00 | 0.00 | 54 | 1023.8 |
| 20260902154611 | 26 | 142 | 4.8 | 14.5 | 0.00 | 0.00 | 0.00 | 55 | 1023.9 |
| 20260902154056 | 26 | 101 | 6.4 | 14.5 | 0.00 | 0.00 | 0.00 | 55 | 1023.8 |
| 20260902153554 | 26 | 113 | 6.4 | 11.3 | 0.00 | 0.00 | 0.00 | 57 | 1024.0 |
| 20260902153100 | 26 | 110 | 6.4 | 12.9 | 0.00 | 0.00 | 0.00 | 57 | 1024.0 |
| 20260902152556 | 26 | 78 | 8.0 | 12.9 | 0.00 | 0.00 | 0.00 | 58 | 1023.9 |
| 20260902152057 | 26 | 109 | 8.0 | 12.9 | 0.00 | 0.00 | 0.00 | 61 | 1024.0 |
| 20260902151559 | 25 | 98 | 6.4 | 11.3 | 0.00 | 0.00 | 0.00 | 61 | 1023.9 |
| 20260902151053 | 25 | 101 | 4.8 | 11.3 | 0.00 | 0.00 | 0.00 | 61 | 1023.9 |
| 20260902150553 | 25 | 113 | 4.8 | 9.7 | 0.00 | 0.00 | 0.00 | 62 | 1023.9 |
| 20260902150105 | 25 | 120 | 4.8 | 9.7 | 0.00 | 0.00 | 0.00 | 62 | 1023.8 |
| 20260902145555 | 24 | 122 | 6.4 | 9.7 | 0.00 | 0.00 | 0.00 | 63 | 1023.8 |
| 20260902145052 | 24 | 112 | 6.4 | 9.7 | 0.00 | 0.00 | 0.00 | 64 | 1023.9 |
| 20260902144602 | 24 | 111 | 6.4 | 9.7 | 0.00 | 0.00 | 0.00 | 65 | 1023.8 |
| 20260902144055 | 23 | 95 | 4.8 | 9.7 | 0.00 | 0.00 | 0.00 | 66 | 1023.8 |
| 20260902143552 | 23 | 116 | 4.8 | 9.7 | 0.00 | 0.00 | 0.00 | 66 | 1023.8 |
| 20260902143102 | 23 | 130 | 1.6 | 6.4 | 0.00 | 0.00 | 0.00 | 69 | 1023.8 |
| 20260902142555 | 22 | 136 | 3.2 | 6.4 | 0.00 | 0.00 | 0.00 | 70 | 1023.8 |
| 20260902142056 | 22 | 139 | 3.2 | 9.7 | 0.00 | 0.00 | 0.00 | 72 | 1023.8 |
| 20260902141601 | 22 | 142 | 3.2 | 9.7 | 0.00 | 0.00 | 0.00 | 74 | 1023.8 |
| 20260902141055 | 21 | 148 | 4.8 | 8.0 | 0.00 | 0.00 | 0.00 | 76 | 1023.8 |
| 20260902140553 | 21 | 179 | 3.2 | 6.4 | 0.00 | 0.00 | 0.00 | 76 | 1023.7 |
| 20260902140105 | 21 | 196 | 1.6 | 6.4 | 0.00 | 0.00 | 0.00 | 79 | 1023.5 |
| 20260902135552 | 20 | 196 | 3.2 | 6.4 | 0.00 | 0.00 | 0.00 | 80 | 1023.5 |
| 20260902135055 | 20 | 196 | 1.6 | 4.8 | 0.00 | 0.00 | 0.00 | 81 | 1023.4 |
| 20260902134604 | 20 | 196 | 1.6 | 4.8 | 0.00 | 0.00 | 0.00 | 82 | 1023.4 |
| 20260902134054 | 20 | 196 | 0.0 | 0.0 | 0.00 | 0.00 | 0.00 | 83 | 1023.4 |
| 20260902133555 | 19 | 0 | 0.0 | 0.0 | 0.00 | 0.00 | 0.00 | 83 | 1023.4 |
| 20260902133058 | 18 | 0 | 0.0 | 1.6 | 0.00 | 0.00 | 0.00 | 84 | 1023.4 |
| 20260902132556 | 18 | 0 | 0.0 | 1.6 | 0.00 | 0.00 | 0.00 | 83 | 1023.4 |
| 20260902132056 | 18 | 0 | 0.0 | 1.6 | 0.00 | 0.00 | 0.00 | 83 | 1023.2 |
| 20260902131601 | 18 | 0 | 0.0 | 3.2 | 0.00 | 0.00 | 0.00 | 83 | 1023.2 |
| 20260902131057 | 18 | 0 | 0.0 | 3.2 | 0.00 | 0.00 | 0.00 | 83 | 1023.1 |
| 20260902130556 | 18 | 0 | 0.0 | 1.6 | 0.00 | 0.00 | 0.00 | 82 | 1023.1 |
| 20260902130105 | 18 | 0 | 0.0 | 1.6 | 0.00 | 0.00 | 0.00 | 82 | 1023.1 |
| 20260902125555 | 18 | 0 | 0.0 | 1.6 | 0.00 | 0.00 | 0.00 | 82 | 1023.1 |
| 20260902125055 | 19 | 0 | 0.0 | 4.8 | 0.00 | 0.00 | 0.00 | 81 | 1023.1 |
| 20260902124602 | 19 | 0 | 0.0 | 4.8 | 0.00 | 0.00 | 0.00 | 81 | 1023.0 |
| 20260902124054 | 19 | 196 | 0.0 | 4.8 | 0.00 | 0.00 | 0.00 | 81 | 1022.8 |
| 20260902123558 | 19 | 0 | 1.6 | 4.8 | 0.00 | 0.00 | 0.00 | 82 | 1022.8 |
| 20260902123107 | 19 | 0 | 0.0 | 4.8 | 0.00 | 0.00 | 0.00 | 82 | 1022.8 |
| 20260902122555 | 19 | 196 | 0.0 | 4.8 | 0.00 | 0.00 | 0.00 | 82 | 1022.7 |
| 20260902122055 | 19 | 196 | 1.6 | 4.8 | 0.00 | 0.00 | 0.00 | 82 | 1022.6 |
| 20260902121559 | 19 | 196 | 1.6 | 4.8 | 0.00 | 0.00 | 0.00 | 83 | 1022.6 |
| 20260902121055 | 19 | 196 | 0.0 | 3.2 | 0.00 | 0.00 | 0.00 | 82 | 1022.6 |
| 20260902120555 | 19 | 0 | 1.6 | 3.2 | 0.00 | 0.00 | 0.00 | 82 | 1022.5 |
| 20260902120059 | 19 | 196 | 0.0 | 4.8 | 0.00 | 0.00 | 0.00 | 82 | 1022.6 |
| 20260902115555 | 19 | 0 | 1.6 | 4.8 | 0.00 | 0.00 | 0.00 | 81 | 1022.6 |
| 20260902115055 | 19 | 196 | 0.0 | 4.8 | 0.00 | 0.00 | 0.00 | 81 | 1022.5 |
| 20260902114621 | 19 | 0 | 1.6 | 4.8 | 0.00 | 0.00 | 0.00 | 81 | 1022.5 |
| 20260902114054 | 20 | 0 | 1.6 | 4.8 | 0.00 | 0.00 | 0.00 | 81 | 1022.5 |
| 20260902113554 | 20 | 196 | 0.0 | 3.2 | 0.00 | 0.00 | 0.00 | 80 | 1022.4 |
| 20260902113107 | 20 | 196 | 0.0 | 6.4 | 0.00 | 0.00 | 0.00 | 81 | 1022.4 |
| 20260902112555 | 19 | 196 | 0.0 | 6.4 | 0.00 | 0.00 | 0.00 | 80 | 1022.3 |
| 20260902112055 | 20 | 0 | 3.2 | 6.4 | 0.00 | 0.00 | 0.00 | 81 | 1022.4 |
| 20260902111601 | 20 | 0 | 0.0 | 4.8 | 0.00 | 0.00 | 0.00 | 80 | 1022.3 |
| 20260902111055 | 20 | 0 | 1.6 | 4.8 | 0.00 | 0.00 | 0.00 | 80 | 1022.4 |
| 20260902110600 | 20 | 0 | 0.0 | 0.0 | 0.00 | 0.00 | 0.00 | 80 | 1022.3 |
| 20260902110107 | 20 | 0 | 0.0 | 1.6 | 0.00 | 0.00 | 0.00 | 80 | 1022.3 |
| 20260902105557 | 20 | 0 | 0.0 | 3.2 | 0.00 | 0.00 | 0.00 | 80 | 1022.3 |
| 20260902105055 | 20 | 0 | 1.6 | 8.0 | 0.00 | 0.00 | 0.00 | 80 | 1022.3 |
| 20260902104601 | 20 | 0 | 0.0 | 8.0 | 0.00 | 0.00 | 0.00 | 80 | 1022.3 |
| 20260902104056 | 20 | 186 | 1.6 | 8.0 | 0.00 | 0.00 | 0.00 | 79 | 1022.4 |
| 20260902103553 | 20 | 0 | 0.0 | 4.8 | 0.00 | 0.00 | 0.00 | 79 | 1022.4 |
| 20260902103113 | 20 | 0 | 0.0 | 9.7 | 0.00 | 0.00 | 0.00 | 79 | 1022.4 |
| 20260902102553 | 20 | 186 | 1.6 | 9.7 | 0.00 | 0.00 | 0.00 | 79 | 1022.4 |
| 20260902102055 | 20 | 175 | 4.8 | 9.7 | 0.00 | 0.00 | 0.00 | 79 | 1022.4 |
| 20260902101604 | 20 | 164 | 3.2 | 6.4 | 0.00 | 0.00 | 0.00 | 80 | 1022.3 |
| 20260902101100 | 20 | 0 | 0.0 | 6.4 | 0.00 | 0.00 | 0.00 | 80 | 1022.5 |
| 20260902100554 | 20 | 245 | 1.6 | 6.4 | 0.00 | 0.00 | 0.00 | 79 | 1022.5 |
| 20260902100126 | 20 | 245 | 3.2 | 4.8 | 0.00 | 0.00 | 0.00 | 79 | 1022.5 |
| 20260902095551 | 20 | 0 | 1.6 | 4.8 | 0.00 | 0.00 | 0.00 | 78 | 1022.5 |
| 20260902095051 | 20 | 0 | 1.6 | 3.2 | 0.00 | 0.00 | 0.00 | 78 | 1022.4 |
| 20260902094617 | 20 | 314 | 0.0 | 4.8 | 0.00 | 0.00 | 0.00 | 77 | 1022.4 |
| 20260902094055 | 20 | 0 | 0.0 | 4.8 | 0.00 | 0.00 | 0.00 | 76 | 1022.4 |
| 20260902093556 | 20 | 314 | 0.0 | 1.6 | 0.00 | 0.00 | 0.00 | 76 | 1022.4 |
| 20260902093114 | 20 | 0 | 0.0 | 4.8 | 0.00 | 0.00 | 0.00 | 74 | 1022.5 |
| 20260902092555 | 20 | 0 | 1.6 | 8.0 | 0.00 | 0.00 | 0.00 | 73 | 1022.4 |
| 20260902092055 | 21 | 191 | 3.2 | 8.0 | 0.00 | 0.00 | 0.00 | 72 | 1022.4 |
| 20260902091601 | 20 | 176 | 4.8 | 8.0 | 0.00 | 0.00 | 0.00 | 73 | 1022.4 |
| 20260902091056 | 20 | 0 | 0.0 | 0.0 | 0.00 | 0.00 | 0.00 | 75 | 1022.5 |
| 20260902090554 | 20 | 0 | 0.0 | 1.6 | 0.00 | 0.00 | 0.00 | 75 | 1022.3 |
| 20260902090104 | 20 | 0 | 0.0 | 1.6 | 0.00 | 0.00 | 0.00 | 75 | 1022.3 |
| 20260902085555 | 20 | 0 | 0.0 | 1.6 | 0.00 | 0.00 | 0.00 | 75 | 1022.4 |
| 20260902085053 | 21 | 0 | 0.0 | 1.6 | 0.00 | 0.00 | 0.00 | 74 | 1022.4 |
| 20260902084600 | 21 | 0 | 0.0 | 9.7 | 0.00 | 0.00 | 0.00 | 73 | 1022.4 |
| 20260902084058 | 21 | 0 | 4.8 | 11.3 | 0.00 | 0.00 | 0.00 | 73 | 1022.4 |
| 20260902083555 | 21 | 174 | 6.4 | 11.3 | 0.00 | 0.00 | 0.00 | 73 | 1022.5 |
| 20260902083102 | 21 | 177 | 8.0 | 11.3 | 0.00 | 0.00 | 0.00 | 73 | 1022.4 |
| 20260902082558 | 20 | 174 | 8.0 | 11.3 | 0.00 | 0.00 | 0.00 | 74 | 1022.5 |
| 20260902082055 | 20 | 172 | 6.4 | 9.7 | 0.00 | 0.00 | 0.00 | 75 | 1022.4 |
| 20260902081606 | 20 | 0 | 0.0 | 6.4 | 0.00 | 0.00 | 0.00 | 75 | 1022.4 |
| 20260902081056 | 20 | 0 | 3.2 | 6.4 | 0.00 | 0.00 | 0.00 | 75 | 1022.5 |
| 20260902080556 | 20 | 355 | 0.0 | 6.4 | 0.00 | 0.00 | 0.00 | 75 | 1022.4 |
| 20260902080108 | 21 | 0 | 1.6 | 8.0 | 0.00 | 0.00 | 0.00 | 74 | 1022.5 |
| 20260902075555 | 21 | 355 | 3.2 | 8.0 | 0.00 | 0.00 | 0.00 | 74 | 1022.5 |
| 20260902075056 | 21 | 355 | 4.8 | 6.4 | 0.00 | 0.00 | 0.00 | 72 | 1022.5 |
| 20260902074602 | 21 | 0 | 0.0 | 0.0 | 0.00 | 0.00 | 0.00 | 69 | 1022.5 |
| 20260902074059 | 21 | 0 | 0.0 | 4.8 | 0.00 | 0.00 | 0.00 | 69 | 1022.4 |
| 20260902073555 | 22 | 0 | 0.0 | 4.8 | 0.00 | 0.00 | 0.00 | 68 | 1022.4 |
| 20260902073109 | 22 | 355 | 1.6 | 4.8 | 0.00 | 0.00 | 0.00 | 68 | 1022.5 |
| 20260902072558 | 22 | 0 | 0.0 | 3.2 | 0.00 | 0.00 | 0.00 | 67 | 1022.4 |
| 20260902072055 | 22 | 0 | 0.0 | 4.8 | 0.00 | 0.00 | 0.00 | 66 | 1022.3 |
| 20260902071606 | 22 | 0 | 0.0 | 4.8 | 0.00 | 0.00 | 0.00 | 65 | 1022.3 |
| 20260902071055 | 23 | 355 | 1.6 | 4.8 | 0.00 | 0.00 | 0.00 | 64 | 1022.3 |
| 20260902070554 | 23 | 355 | 3.2 | 4.8 | 0.00 | 0.00 | 0.00 | 64 | 1022.4 |
| 20260902070107 | 23 | 355 | 1.6 | 6.4 | 0.00 | 0.00 | 0.00 | 64 | 1022.4 |
| 20260902065558 | 23 | 355 | 3.2 | 6.4 | 0.00 | 0.00 | 0.00 | 63 | 1022.4 |
| 20260902065052 | 23 | 355 | 3.2 | 6.4 | 0.00 | 0.00 | 0.00 | 63 | 1022.4 |
| 20260902064606 | 23 | 355 | 1.6 | 6.4 | 0.00 | 0.00 | 0.00 | 62 | 1022.5 |
| 20260902064055 | 23 | 355 | 3.2 | 8.0 | 0.00 | 0.00 | 0.00 | 62 | 1022.5 |
| 20260902063555 | 23 | 356 | 1.6 | 8.0 | 0.00 | 0.00 | 0.00 | 63 | 1022.4 |
| 20260902063102 | 23 | 356 | 3.2 | 9.7 | 0.00 | 0.00 | 0.00 | 63 | 1022.4 |
| 20260902062559 | 22 | 359 | 4.8 | 9.7 | 0.00 | 0.00 | 0.00 | 64 | 1022.5 |
| 20260902062051 | 22 | 1 | 6.4 | 9.7 | 0.00 | 0.00 | 0.00 | 67 | 1022.4 |
| 20260902061638 | 22 | 322 | 1.6 | 6.4 | 0.00 | 0.00 | 0.00 | 67 | 1022.4 |
| 20260902061056 | 22 | 0 | 1.6 | 4.8 | 0.00 | 0.00 | 0.00 | 67 | 1022.5 |
| 20260902060553 | 22 | 307 | 1.6 | 8.0 | 0.00 | 0.00 | 0.00 | 64 | 1022.4 |
| 20260902060103 | 22 | 307 | 3.2 | 8.0 | 0.00 | 0.00 | 0.00 | 64 | 1022.4 |
| 20260902055552 | 22 | 307 | 4.8 | 8.0 | 0.00 | 0.00 | 0.00 | 64 | 1022.4 |
| 20260902055052 | 22 | 307 | 4.8 | 8.0 | 0.00 | 0.00 | 0.00 | 64 | 1022.3 |
| 20260902054601 | 22 | 314 | 3.2 | 6.4 | 0.00 | 0.00 | 0.00 | 64 | 1022.3 |
| 20260902054055 | 23 | 314 | 3.2 | 6.4 | 0.00 | 0.00 | 0.00 | 64 | 1022.4 |